DW9727 Weather Reports


time (UTC)temp
C
wind
direction
speed
KPH
gust
KPH
rain 1hr
cm
rain 24hr
cm
rain mn
cm
humidity
%
barometer
mb
20260902145711 24 182 4.8 12.9 0.00 0.15 0.15 75 1008.5
20260902144711 23 182 4.8 9.7 0.00 0.15 0.15 76 1008.5
20260902143711 23 224 4.8 9.7 0.00 0.15 0.15 76 1008.5
20260902142710 23 188 3.2 11.3 0.00 0.15 0.15 76 1008.5
20260902140710 23 194 3.2 4.8 0.00 0.15 0.15 78 1008.6
20260902135711 22 213 3.2 4.8 0.00 0.15 0.15 78 1008.6
20260902134711 22 179 1.6 4.8 0.00 0.15 0.15 78 1008.5
20260902133711 22 192 3.2 8.0 0.00 0.15 0.15 77 1008.6
20260902132711 22 183 4.8 9.7 0.00 0.15 0.15 78 1008.6
20260902130710 22 192 6.4 11.3 0.00 0.15 0.15 78 1008.7
20260902125710 22 159 1.6 8.0 0.00 0.15 0.15 79 1008.7
20260902124710 22 163 3.2 11.3 0.00 0.15 0.15 79 1008.7
20260902123711 21 182 4.8 11.3 0.00 0.15 0.15 80 1008.6
20260902122710 21 173 8.0 12.9 0.00 0.15 0.15 80 1008.6
20260902121710 21 175 6.4 16.1 0.00 0.15 0.15 82 1008.6
20260902120711 21 184 8.0 14.5 0.00 0.15 0.15 84 1008.5
20260902115710 21 176 4.8 11.3 0.03 0.15 0.15 86 1008.5
20260902114711 21 148 1.6 3.2 0.15 0.15 0.15 86 1008.4
20260902113710 21 148 0.0 3.2 0.15 0.15 0.15 84 1008.3
20260902112710 21 146 0.0 4.8 0.15 0.15 0.15 83 1008.4
20260902111710 21 192 3.2 9.7 0.15 0.15 0.15 81 1008.5
20260902110711 22 185 8.0 9.7 0.15 0.15 0.15 79 1008.6
20260902105711 23 186 12.9 20.9 0.13 0.13 0.13 75 1008.7
20260902104711 23 220 12.9 25.7 0.00 0.00 0.00 69 1008.7
20260902103710 23 214 4.8 8.0 0.00 0.00 0.00 69 1008.7
20260902102711 23 224 3.2 8.0 0.00 0.00 0.00 67 1008.7
20260902101710 24 200 4.8 8.0 0.00 0.00 0.00 66 1008.5
20260902100711 24 213 4.8 8.0 0.00 0.00 0.00 66 1008.6
20260902094710 24 172 4.8 11.3 0.00 0.00 0.00 65 1008.6
20260902093711 24 185 3.2 4.8 0.00 0.00 0.00 65 1008.5
20260902091711 23 186 14.5 24.1 0.00 0.00 0.00 71 1008.5
20260902090711 22 183 1.6 11.3 0.00 0.00 0.00 77 1008.5
20260902085711 22 44 1.6 4.8 0.00 0.00 0.00 81 1008.5
20260902084711 22 64 3.2 4.8 0.00 0.00 0.00 80 1008.6
20260902083711 23 56 3.2 4.8 0.00 0.00 0.00 80 1008.7
20260902082710 23 86 3.2 4.8 0.00 0.00 0.00 79 1008.8
20260902081710 23 105 4.8 9.7 0.00 0.00 0.00 79 1008.9
20260902080710 23 77 4.8 11.3 0.00 0.00 0.00 79 1009.0
20260902075710 23 36 8.0 14.5 0.00 0.00 0.00 79 1009.1
20260902074711 23 50 4.8 11.3 0.00 0.03 0.00 77 1009.4
20260902073710 24 48 6.4 14.5 0.00 0.03 0.00 76 1009.4
20260902072710 25 135 4.8 12.9 0.00 0.03 0.00 74 1009.3
20260902071711 25 80 8.0 20.9 0.00 0.03 0.00 74 1009.4
20260902070711 25 42 6.4 9.7 0.00 0.03 0.00 72 1009.4
20260902064711 26 302 4.8 12.9 0.00 0.03 0.00 71 1009.5
20260902063711 26 332 3.2 14.5 0.00 0.03 0.00 70 1009.3
20260902062710 26 40 9.7 20.9 0.00 0.03 0.00 71 1009.5
20260902061710 26 309 9.7 22.5 0.00 0.03 0.00 65 1008.9
20260902055710 25 238 4.8 11.3 0.00 0.03 0.00 78 1008.5
20260902054710 25 56 1.6 8.0 0.00 0.03 0.00 83 1008.4
20260902053711 25 96 0.0 1.6 0.00 0.03 0.00 82 1008.3
20260902052710 25 96 0.0 3.2 0.00 0.03 0.00 82 1008.4
20260902051711 25 100 1.6 4.8 0.00 0.03 0.00 82 1008.3
20260902050711 26 140 3.2 8.0 0.00 0.03 0.00 82 1008.1
20260902045710 26 140 1.6 4.8 0.00 0.03 0.03 81 1008.3
20260902044711 26 61 6.4 12.9 0.00 0.03 0.03 81 1008.1
20260902043710 26 100 4.8 12.9 0.00 0.03 0.03 81 1008.4
20260902042710 26 73 8.0 14.5 0.00 0.03 0.03 81 1008.4
20260902041710 26 63 3.2 12.9 0.00 0.03 0.03 81 1008.5
20260902035711 26 334 8.0 12.9 0.00 0.03 0.03 81 1008.9
20260902033710 27 101 1.6 4.8 0.00 0.03 0.03 81 1008.5
20260902032710 27 79 0.0 4.8 0.00 0.03 0.03 80 1008.5
20260902031710 27 63 3.2 4.8 0.00 0.03 0.03 80 1008.5
20260902030710 27 61 3.2 4.8 0.00 0.03 0.03 80 1008.5
20260902025711 27 57 3.2 4.8 0.00 0.03 0.03 79 1008.4
20260902024711 27 96 1.6 4.8 0.00 0.03 0.03 78 1008.3
20260902023711 27 94 3.2 4.8 0.00 0.03 0.03 78 1008.2
20260902022711 28 49 1.6 4.8 0.00 0.03 0.03 78 1008.1
20260902021711 28 54 1.6 4.8 0.00 0.03 0.03 77 1007.9
20260902020710 28 59 3.2 4.8 0.00 0.03 0.03 76 1007.7
20260902014710 28 176 0.0 0.0 0.00 0.03 0.03 73 1007.4
20260902013710 29 210 0.0 0.0 0.00 0.03 0.03 72 1007.3
20260902012710 30 210 0.0 0.0 0.00 0.03 0.03 71 1007.2
20260902011711 30 210 0.0 0.0 0.00 0.03 0.03 69 1007.2
20260902010710 30 209 0.0 1.6 0.00 0.03 0.03 68 1007.5
20260902004710 31 175 0.0 3.2 0.00 0.03 0.03 66 1007.4
20260902003711 31 178 1.6 4.8 0.00 0.03 0.03 65 1007.4
20260902002710 31 189 1.6 8.0 0.00 0.03 0.03 65 1007.3
20260902001710 31 181 3.2 4.8 0.00 0.03 0.03 65 1007.3
20260901235710 31 161 4.8 8.0 0.00 0.03 0.03 64 1007.4
20260901234710 31 178 8.0 11.3 0.00 0.03 0.03 63 1007.5
20260901233711 32 175 6.4 14.5 0.00 0.03 0.03 63 1007.6
20260901232710 32 188 8.0 11.3 0.00 0.03 0.03 62 1007.7
20260901231711 32 164 8.0 16.1 0.00 0.03 0.03 61 1007.7
20260901230710 32 173 8.0 14.5 0.00 0.03 0.03 62 1007.8
20260901225710 32 165 8.0 16.1 0.00 0.03 0.03 60 1007.9
20260901224711 32 162 9.7 16.1 0.00 0.03 0.03 60 1008.0
20260901223711 32 171 9.7 16.1 0.00 0.03 0.03 60 1008.1
20260901222710 32 189 4.8 19.3 0.00 0.03 0.03 60 1008.1
20260901221711 33 171 6.4 16.1 0.00 0.03 0.03 58 1008.1
20260901215711 33 166 12.9 19.3 0.00 0.03 0.03 55 1008.2
20260901214710 33 164 8.0 16.1 0.00 0.03 0.03 56 1008.4
20260901213711 33 194 9.7 14.5 0.00 0.03 0.03 56 1008.4
20260901212710 33 164 8.0 14.5 0.00 0.03 0.03 56 1008.5
20260901211710 33 197 9.7 19.3 0.00 0.03 0.03 55 1008.5
20260901204711 33 175 9.7 22.5 0.00 0.03 0.03 56 1008.8
20260901203710 33 171 9.7 19.3 0.00 0.03 0.03 56 1008.9
20260901202710 33 171 8.0 22.5 0.00 0.03 0.03 57 1008.9
20260901201710 32 191 3.2 19.3 0.00 0.03 0.03 60 1009.1
20260901200711 32 170 4.8 14.5 0.00 0.03 0.03 60 1009.2
20260901195710 32 138 9.7 19.3 0.00 0.03 0.03 62 1009.3
20260901194710 32 176 9.7 22.5 0.00 0.03 0.03 60 1009.6
20260901193711 31 187 9.7 14.5 0.00 0.03 0.03 62 1009.6
20260901192711 31 170 9.7 19.3 0.00 0.03 0.03 66 1009.6
20260901191710 31 94 11.3 27.4 0.00 0.03 0.03 63 1009.6
20260901185710 31 190 12.9 29.0 0.00 0.03 0.03 66 1009.6
20260901184711 31 122 14.5 24.1 0.00 0.03 0.03 66 1009.6
20260901183710 31 139 11.3 22.5 0.00 0.03 0.03 68 1009.6
20260901182710 31 81 11.3 29.0 0.00 0.03 0.03 68 1009.7
20260901175711 30 94 11.3 16.1 0.00 0.03 0.03 68 1010.1
20260901174710 30 96 11.3 19.3 0.00 0.03 0.03 69 1010.2
20260901173710 30 94 8.0 16.1 0.00 0.03 0.03 72 1010.1
20260901172710 30 115 8.0 14.5 0.00 0.03 0.03 70 1010.1
20260901171711 30 58 8.0 19.3 0.00 0.03 0.03 71 1010.2
20260901170710 30 68 8.0 19.3 0.00 0.03 0.03 70 1010.1
20260901165711 30 52 4.8 14.5 0.00 0.03 0.03 71 1010.2
20260901164710 30 315 4.8 14.5 0.00 0.03 0.03 70 1010.3
20260901162711 28 44 8.0 19.3 0.00 0.03 0.03 73 1010.3
20260901161710 28 36 8.0 14.5 0.00 0.03 0.03 72 1010.4
20260901160711 28 327 6.4 12.9 0.00 0.03 0.03 71 1010.5
20260901155710 28 29 4.8 14.5 0.00 0.03 0.03 71 1010.5
20260901154710 28 42 4.8 11.3 0.00 0.03 0.03 71 1010.3
20260901153710 28 23 8.0 12.9 0.00 0.03 0.03 72 1010.4
20260901152711 28 47 4.8 11.3 0.00 0.03 0.03 72 1010.3
20260901151712 28 61 6.4 11.3 0.00 0.03 0.03 69 1010.3
20260901150710 28 11 4.8 9.7 0.00 0.03 0.03 70 1010.3